• In Uzbekistan
  • List of Countries
  • For 7 days
  • Water Temperature
  • Satellite Maps
  • Weather Map
  • Weather Widgets
  • user-avatar
    Login

    Hourly Weather Satif

    Today, 27 February, Monday

    Time Temperature Precipitation Wind Pressure Humidity
    00:00 +2°C° 0 mm 1 mps 672 mmHg 94%
    01:00 +2°C° 0 mm 1 mps 671 mmHg 93%
    02:00 +2°C° 0 mm 1 mps 671 mmHg 92%
    03:00 +2°C° 0 mm 1 mps 671 mmHg 92%
    04:00 +2°C° 0 mm 1 mps 671 mmHg 91%
    05:00 +1°C° 0 mm 1 mps 671 mmHg 91%
    06:00 +1°C° 0 mm 1 mps 670 mmHg 90%
    07:00 +4°C° 0 mm 1 mps 671 mmHg 80%
    08:00 +7°C° 0 mm 1 mps 672 mmHg 69%
    09:00 +10°C° 0 mm 1 mps 673 mmHg 58%
    10:00 +12°C° 0 mm 2 mps 673 mmHg 51%
    11:00 +13°C° 0 mm 2 mps 673 mmHg 43%
    12:00 +15°C° 0 mm 2 mps 674 mmHg 35%
    13:00 +15°C° 0 mm 2 mps 673 mmHg 36%
    14:00 +15°C° 0 mm 2 mps 673 mmHg 36%
    15:00 +15°C° 0 mm 2 mps 672 mmHg 36%
    16:00 +12°C° 0 mm 1 mps 671 mmHg 48%
    17:00 +9°C° 0 mm 1 mps 671 mmHg 59%
    18:00 +6°C° 0 mm 1 mps 670 mmHg 71%
    19:00 +6°C° 0 mm 1 mps 670 mmHg 72%
    20:00 +6°C° 0 mm 1 mps 670 mmHg 73%
    21:00 +5°C° 0 mm 1 mps 670 mmHg 74%
    22:00 +5°C° 0 mm 1 mps 670 mmHg 72%
    23:00 +6°C° 0 mm 1 mps 670 mmHg 70%

    Tomorrow, 28 February, Tuesday

    Time Temperature Precipitation Wind Pressure Humidity
    00:00 +5°C° 0 mm 2 mps 670 mmHg 68%
    01:00 +4°C° 0 mm 2 mps 670 mmHg 69%
    02:00 +4°C° 0 mm 2 mps 669 mmHg 69%
    03:00 +4°C° 0 mm 2 mps 669 mmHg 69%
    04:00 +4°C° 0 mm 2 mps 669 mmHg 70%
    05:00 +4°C° 0 mm 2 mps 669 mmHg 70%
    06:00 +3°C° 0 mm 2 mps 669 mmHg 71%
    07:00 +6°C° 0 mm 2 mps 670 mmHg 62%
    08:00 +9°C° 0 mm 2 mps 671 mmHg 53%
    09:00 +12°C° 0 mm 2 mps 672 mmHg 44%
    10:00 +14°C° 0 mm 2 mps 672 mmHg 40%
    11:00 +15°C° 0 mm 2 mps 672 mmHg 36%
    12:00 +17°C° 0 mm 3 mps 672 mmHg 32%
    13:00 +17°C° 0 mm 3 mps 672 mmHg 34%
    14:00 +16°C° 0 mm 3 mps 672 mmHg 36%
    15:00 +16°C° 0 mm 3 mps 671 mmHg 37%
    16:00 +13°C° 0 mm 3 mps 671 mmHg 48%
    17:00 +10°C° 0 mm 2 mps 670 mmHg 58%
    18:00 +8°C° 0 mm 2 mps 670 mmHg 69%
    19:00 +8°C° 0 mm 1 mps 670 mmHg 73%
    20:00 +7°C° 0 mm 1 mps 670 mmHg 78%
    21:00 +6°C° 0 mm 1 mps 670 mmHg 82%
    22:00 +5°C° 0 mm 1 mps 670 mmHg 85%
    23:00 +5°C° 0 mm 1 mps 670 mmHg 87%

    Day after tomorrow, 1 March, Wednesday

    Time Temperature Precipitation Wind Pressure Humidity
    00:00 +4°C° 0 mm 1 mps 670 mmHg 89%
    01:00 +4°C° 0 mm 1 mps 670 mmHg 91%
    02:00 +4°C° 0 mm 1 mps 670 mmHg 92%
    03:00 +4°C° 0 mm 1 mps 670 mmHg 94%
    04:00 +3°C° 0 mm 1 mps 670 mmHg 94%
    05:00 +3°C° 0 mm 1 mps 670 mmHg 94%
    06:00 +3°C° 0 mm 1 mps 671 mmHg 95%
    07:00 +5°C° 0 mm 1 mps 672 mmHg 85%
    08:00 +8°C° 0 mm 1 mps 673 mmHg 75%
    09:00 +11°C° 0 mm 1 mps 674 mmHg 66%
    10:00 +12°C° 0 mm 1 mps 674 mmHg 59%
    11:00 +14°C° 0 mm 1 mps 675 mmHg 53%
    12:00 +15°C° 0 mm 1 mps 675 mmHg 47%
    13:00 +15°C° 0 mm 1 mps 675 mmHg 48%
    14:00 +15°C° 0 mm 2 mps 674 mmHg 48%
    15:00 +15°C° 0 mm 2 mps 674 mmHg 49%
    16:00 +13°C° 0 mm 2 mps 674 mmHg 59%
    17:00 +11°C° 0 mm 1 mps 673 mmHg 70%
    18:00 +8°C° 0 mm 1 mps 673 mmHg 81%
    19:00 +7°C° 0 mm 1 mps 673 mmHg 84%
    20:00 +6°C° 0 mm 1 mps 673 mmHg 88%
    21:00 +6°C° 0 mm 1 mps 673 mmHg 91%
    22:00 +6°C° 0 mm 1 mps 673 mmHg 91%
    23:00 +5°C° 0 mm 1 mps 673 mmHg 91%

    2 March, Thursday

    Time Temperature Precipitation Wind Pressure Humidity
    00:00 +5°C° 0 mm 1 mps 673 mmHg 91%
    01:00 +5°C° 0 mm 1 mps 673 mmHg 90%
    02:00 +5°C° 0 mm 1 mps 672 mmHg 89%
    03:00 +5°C° 0 mm 1 mps 672 mmHg 88%
    04:00 +5°C° 0 mm 1 mps 672 mmHg 85%
    05:00 +4°C° 0 mm 2 mps 672 mmHg 83%
    06:00 +4°C° 0 mm 2 mps 672 mmHg 81%
    07:00 +7°C° 0 mm 2 mps 673 mmHg 70%
    08:00 +10°C° 0 mm 2 mps 674 mmHg 58%
    09:00 +12°C° 0 mm 3 mps 675 mmHg 47%
    10:00 +14°C° 0 mm 3 mps 675 mmHg 42%
    11:00 +17°C° 0 mm 3 mps 675 mmHg 37%
    12:00 +18°C° 0 mm 3 mps 675 mmHg 32%
    13:00 +18°C° 0 mm 3 mps 674 mmHg 33%
    14:00 +18°C° 0 mm 3 mps 674 mmHg 34%
    15:00 +18°C° 0 mm 3 mps 673 mmHg 35%
    16:00 +15°C° 0 mm 2 mps 673 mmHg 46%
    17:00 +12°C° 0 mm 2 mps 672 mmHg 57%
    18:00 +9°C° 0 mm 2 mps 671 mmHg 68%
    19:00 +8°C° 0 mm 2 mps 671 mmHg 67%
    20:00 +8°C° 0 mm 2 mps 671 mmHg 66%
    21:00 +8°C° 0 mm 2 mps 672 mmHg 65%
    22:00 +7°C° 0 mm 2 mps 671 mmHg 65%
    23:00 +7°C° 0 mm 2 mps 671 mmHg 65%

    3 March, Friday

    Time Temperature Precipitation Wind Pressure Humidity
    00:00 +7°C° 0 mm 2 mps 671 mmHg 64%
    01:00 +7°C° 0 mm 2 mps 670 mmHg 63%
    02:00 +7°C° 0 mm 2 mps 670 mmHg 63%
    03:00 +7°C° 0 mm 3 mps 670 mmHg 62%
    04:00 +7°C° 0 mm 3 mps 670 mmHg 62%
    05:00 +5°C° 0 mm 3 mps 670 mmHg 62%
    06:00 +5°C° 0 mm 3 mps 670 mmHg 62%
    07:00 +9°C° 0 mm 3 mps 670 mmHg 54%
    08:00 +12°C° 0 mm 3 mps 671 mmHg 46%
    09:00 +14°C° 0 mm 4 mps 672 mmHg 38%
    10:00 +17°C° 0 mm 4 mps 672 mmHg 34%
    11:00 +18°C° 0 mm 4 mps 672 mmHg 31%
    12:00 +20°C° 0 mm 4 mps 672 mmHg 27%
    13:00 +19°C° 0 mm 3 mps 672 mmHg 28%
    14:00 +19°C° 0 mm 3 mps 672 mmHg 29%
    15:00 +19°C° 0 mm 3 mps 671 mmHg 31%
    16:00 +16°C° 0 mm 3 mps 671 mmHg 40%
    17:00 +13°C° 0 mm 2 mps 670 mmHg 49%
    18:00 +10°C° 0 mm 2 mps 670 mmHg 58%
    19:00 +10°C° 0 mm 1 mps 670 mmHg 60%
    20:00 +9°C° 0 mm 1 mps 670 mmHg 63%
    21:00 +8°C° 0 mm 1 mps 670 mmHg 65%
    22:00 +8°C° 0 mm 1 mps 669 mmHg 62%
    23:00 +7°C° 0 mm 2 mps 669 mmHg 59%

    4 March, Saturday

    Time Temperature Precipitation Wind Pressure Humidity
    00:00 +7°C° 0 mm 2 mps 669 mmHg 57%
    01:00 +8°C° 0 mm 2 mps 668 mmHg 54%
    02:00 +8°C° 0 mm 2 mps 668 mmHg 52%
    03:00 +8°C° 0 mm 3 mps 667 mmHg 49%
    04:00 +8°C° 0 mm 3 mps 667 mmHg 49%
    05:00 +7°C° 0 mm 3 mps 667 mmHg 48%
    06:00 +7°C° 0 mm 3 mps 667 mmHg 47%
    07:00 +10°C° 0 mm 4 mps 667 mmHg 41%
    08:00 +12°C° 0 mm 5 mps 668 mmHg 36%
    09:00 +15°C° 0 mm 6 mps 668 mmHg 31%
    10:00 +16°C° 0 mm 6 mps 668 mmHg 29%
    11:00 +19°C° 0 mm 6 mps 668 mmHg 26%
    12:00 +20°C° 0 mm 7 mps 668 mmHg 24%
    13:00 +20°C° 0 mm 7 mps 667 mmHg 26%
    14:00 +19°C° 0 mm 6 mps 667 mmHg 27%
    15:00 +19°C° 0 mm 6 mps 667 mmHg 28%
    16:00 +15°C° 0.2 mm 5 mps 667 mmHg 39%
    17:00 +13°C° 0.2 mm 5 mps 667 mmHg 50%
    18:00 +11°C° 0.2 mm 4 mps 667 mmHg 61%
    19:00 +8°C° 1.4 mm 4 mps 667 mmHg 69%
    20:00 +7°C° 1.4 mm 4 mps 668 mmHg 76%
    21:00 +5°C° 1.4 mm 4 mps 668 mmHg 83%
    22:00 +4°C° 0.3 mm 3 mps 668 mmHg 81%
    23:00 +4°C° 0.3 mm 2 mps 668 mmHg 78%
    Show more